Time,TemperatureF,DewpointF,PressureIn,WindDirection,WindDirectionDegrees,WindSpeedMPH,WindSpeedGustMPH,Humidity,HourlyPrecipIn,Conditions,Clouds,dailyrainin,SoftwareType,DateUTC
2013-09-01 00:00:00,68.5,68.5,29.78,SSE,160,0.0,4.0,100,0.00,CLR,,3.49,WeatherDisplay:10.37,2013-09-01 04:00:00,
2013-09-01 00:01:00,67.5,67.5,29.77,South,182,0.0,0.0,100,0.00,-RA,,0.00,WeatherDisplay:10.37,2013-09-01 04:01:00,
2013-09-01 00:02:00,67.5,67.5,29.77,South,182,0.0,0.0,100,0.00,-RA,,0.00,WeatherDisplay:10.37,2013-09-01 04:02:00,
2013-09-01 00:03:00,67.5,67.5,29.77,South,184,0.0,0.0,100,0.00,-RA,,0.00,WeatherDisplay:10.37,2013-09-01 04:03:00,
2013-09-01 00:08:00,67.5,67.5,29.77,SSW,202,1.2,0.0,100,0.00,-RA,,0.00,WeatherDisplay:10.37,2013-09-01 04:08:00,
2013-09-01 00:13:00,67.7,67.7,29.77,SSW,202,0.0,0.0,100,0.00,-RA,,0.00,WeatherDisplay:10.37,2013-09-01 04:13:00,
2013-09-01 00:15:00,68.0,68.0,29.78,SSE,158,0.0,6.0,100,0.00,CLR,,3.49,WeatherDisplay:10.37,2013-09-01 04:15:00,
2013-09-01 00:18:00,67.7,67.7,29.77,SSW,202,1.2,0.0,100,0.00,-RA,,0.00,WeatherDisplay:10.37,2013-09-01 04:18:00,
2013-09-01 00:23:00,67.5,67.5,29.77,SSW,202,1.2,1.2,100,0.00,-RA,,0.00,WeatherDisplay:10.37,2013-09-01 04:23:00,
2013-09-01 00:28:00,67.5,67.5,29.77,SSW,202,0.0,0.0,100,0.00,-RA,,0.00,WeatherDisplay:10.37,2013-09-01 04:28:00,
2013-09-01 00:30:00,67.7,67.7,29.77,SSW,196,0.0,5.0,100,0.00,CLR,,3.50,WeatherDisplay:10.37,2013-09-01 04:30:00,
2013-09-01 00:33:00,67.3,67.3,29.77,SSW,202,2.3,2.3,100,0.00,-RA,,0.00,WeatherDisplay:10.37,2013-09-01 04:33:00,
2013-09-01 00:38:00,67.3,67.3,29.78,SSW,202,0.0,0.0,100,0.00,-RA,,0.00,WeatherDisplay:10.37,2013-09-01 04:38:00,
2013-09-01 00:43:00,67.3,67.3,29.78,SSW,198,0.0,0.2,100,0.00,-RA,,0.00,WeatherDisplay:10.37,2013-09-01 04:43:00,
2013-09-01 00:45:00,67.8,67.8,29.77,SSW,202,0.0,1.0,100,0.00,CLR,,3.50,WeatherDisplay:10.37,2013-09-01 04:45:00,
2013-09-01 00:48:00,67.3,67.3,29.78,SSW,196,1.2,1.2,100,0.00,-RA,,0.00,WeatherDisplay:10.37,2013-09-01 04:48:00,
2013-09-01 00:53:00,67.3,67.3,29.77,SSW,196,1.2,1.2,100,0.00,-RA,,0.00,WeatherDisplay:10.37,2013-09-01 04:53:00,
2013-09-01 00:58:00,67.3,67.3,29.77,SSW,196,0.0,0.3,100,0.00,-RA,,0.00,WeatherDisplay:10.37,2013-09-01 04:58:00,
2013-09-01 01:03:00,67.3,67.3,29.77,SSW,208,3.5,3.5,100,0.00,OVC,,0.00,WeatherDisplay:10.37,2013-09-01 05:03:00,
2013-09-01 01:08:00,67.2,67.2,29.77,SW,222,0.0,0.2,100,0.00,OVC,,0.00,WeatherDisplay:10.37,2013-09-01 05:08:00,
2013-09-01 01:13:00,67.2,67.2,29.77,South,185,0.0,0.0,100,0.00,OVC,,0.00,WeatherDisplay:10.37,2013-09-01 05:13:00,
2013-09-01 01:15:00,67.7,67.7,29.77,SSW,202,0.0,3.0,100,0.00,CLR,,0.00,WeatherDisplay:10.37,2013-09-01 05:15:00,
2013-09-01 01:18:00,67.2,67.2,29.77,SSE,165,2.3,2.3,100,0.00,OVC,,0.00,WeatherDisplay:10.37,2013-09-01 05:18:00,
2013-09-01 01:24:00,67.2,67.2,29.77,SW,223,0.0,0.0,100,0.00,OVC,,0.00,WeatherDisplay:10.37,2013-09-01 05:24:00,
2013-09-01 01:29:00,67.2,67.2,29.77,SSW,209,1.2,0.0,100,0.00,OVC,,0.00,WeatherDisplay:10.37,2013-09-01 05:29:00,
2013-09-01 01:30:00,67.3,67.3,29.78,SSW,202,0.0,1.0,100,0.00,CLR,,0.00,WeatherDisplay:10.37,2013-09-01 05:30:00,
2013-09-01 01:34:00,67.2,67.2,29.77,SSE,158,0.0,0.0,100,0.00,OVC,,0.00,WeatherDisplay:10.37,2013-09-01 05:34:00,
2013-09-01 01:39:00,67.0,67.0,29.76,SSW,192,2.6,2.6,100,0.00,OVC,,0.00,WeatherDisplay:10.37,2013-09-01 05:39:00,
2013-09-01 01:44:00,67.2,67.2,29.76,SSW,192,1.2,1.2,100,0.00,OVC,,0.00,WeatherDisplay:10.37,2013-09-01 05:44:00,
2013-09-01 01:45:00,67.3,67.3,29.78,SSW,202,0.0,4.0,100,0.00,CLR,,0.00,WeatherDisplay:10.37,2013-09-01 05:45:00,
2013-09-01 01:49:00,67.2,67.2,29.76,SSW,193,0.0,0.0,100,0.00,OVC,,0.00,WeatherDisplay:10.37,2013-09-01 05:49:00,
2013-09-01 01:54:00,67.2,67.2,29.77,SSW,193,0.0,0.0,100,0.00,OVC,,0.00,WeatherDisplay:10.37,2013-09-01 05:54:00,
2013-09-01 01:59:00,67.2,67.2,29.76,SSW,192,0.0,0.0,100,0.00,OVC,,0.00,WeatherDisplay:10.37,2013-09-01 05:59:00,
2013-09-01 02:00:00,67.3,67.3,29.77,SSW,204,1.0,3.0,100,0.00,CLR,,0.00,WeatherDisplay:10.37,2013-09-01 06:00:00,
2013-09-01 02:04:00,67.2,67.2,29.76,SSW,192,0.0,0.0,100,0.00,OVC,,0.00,WeatherDisplay:10.37,2013-09-01 06:04:00,
2013-09-01 02:09:00,67.2,67.2,29.76,SSW,192,0.0,0.0,100,0.00,OVC,,0.00,WeatherDisplay:10.37,2013-09-01 06:09:00,
2013-09-01 02:14:00,67.2,67.2,29.76,SSW,193,1.2,1.2,100,0.00,OVC,,0.00,WeatherDisplay:10.37,2013-09-01 06:14:00,
2013-09-01 02:15:00,67.2,67.2,29.77,SW,223,1.0,8.0,100,0.00,CLR,,0.00,WeatherDisplay:10.37,2013-09-01 06:15:00,
2013-09-01 02:19:00,67.2,67.2,29.76,SW,217,0.0,0.0,100,0.00,OVC,,0.00,WeatherDisplay:10.37,2013-09-01 06:19:00,
2013-09-01 02:24:00,67.2,67.2,29.75,SW,217,1.2,1.2,100,0.00,OVC,,0.00,WeatherDisplay:10.37,2013-09-01 06:24:00,
2013-09-01 02:29:00,67.2,67.2,29.75,SW,217,0.0,0.0,100,0.00,OVC,,0.00,WeatherDisplay:10.37,2013-09-01 06:29:00,
2013-09-01 02:30:00,67.2,67.2,29.77,South,179,1.0,8.0,100,0.00,CLR,,0.00,WeatherDisplay:10.37,2013-09-01 06:30:00,
2013-09-01 02:34:00,67.3,67.3,29.75,SW,217,0.0,0.0,100,0.00,OVC,,0.00,WeatherDisplay:10.37,2013-09-01 06:34:00,
2013-09-01 02:39:00,67.3,67.3,29.75,SW,217,0.0,0.0,100,0.00,OVC,,0.00,WeatherDisplay:10.37,2013-09-01 06:39:00,
2013-09-01 02:44:00,67.3,67.3,29.75,SW,217,0.0,0.0,100,0.00,OVC,,0.00,WeatherDisplay:10.37,2013-09-01 06:44:00,
2013-09-01 02:45:00,67.2,67.2,29.76,SSW,202,0.0,4.0,100,0.00,CLR,,0.00,WeatherDisplay:10.37,2013-09-01 06:45:00,
2013-09-01 02:49:00,67.3,67.3,29.75,SW,217,0.0,0.0,100,0.00,OVC,,0.00,WeatherDisplay:10.37,2013-09-01 06:49:00,
2013-09-01 02:54:00,67.2,67.2,29.75,SW,217,0.0,0.0,100,0.00,OVC,,0.00,WeatherDisplay:10.37,2013-09-01 06:54:00,
2013-09-01 02:59:00,67.0,67.0,29.75,SW,217,0.0,0.0,100,0.00,OVC,,0.00,WeatherDisplay:10.37,2013-09-01 06:59:00,
2013-09-01 03:00:00,67.2,67.2,29.76,SSW,202,0.0,1.0,100,0.00,CLR,,0.00,WeatherDisplay:10.37,2013-09-01 07:00:00,
2013-09-01 03:04:00,66.8,66.8,29.75,SW,217,0.0,0.0,100,0.00,OVC,,0.00,WeatherDisplay:10.37,2013-09-01 07:04:00,
2013-09-01 03:09:00,66.7,66.7,29.75,SW,220,0.0,0.0,100,0.00,OVC,,0.00,WeatherDisplay:10.37,2013-09-01 07:09:00,
2013-09-01 03:14:00,66.5,66.5,29.75,SW,220,0.0,0.0,100,0.00,OVC,,0.00,WeatherDisplay:10.37,2013-09-01 07:14:00,
2013-09-01 03:15:00,67.2,67.2,29.76,SSW,206,0.0,6.0,100,0.00,CLR,,0.00,WeatherDisplay:10.37,2013-09-01 07:15:00,
2013-09-01 03:19:00,66.5,66.5,29.75,SW,220,0.0,0.0,100,0.00,OVC,,0.00,WeatherDisplay:10.37,2013-09-01 07:19:00,
2013-09-01 03:24:00,66.5,66.5,29.75,SW,220,0.0,0.0,100,0.00,OVC,,0.00,WeatherDisplay:10.37,2013-09-01 07:24:00,
2013-09-01 03:29:00,66.5,66.5,29.75,SW,220,0.0,0.0,100,0.00,OVC,,0.00,WeatherDisplay:10.37,2013-09-01 07:29:00,
2013-09-01 03:30:00,67.2,67.2,29.75,SW,225,0.0,1.0,100,0.00,CLR,,0.00,WeatherDisplay:10.37,2013-09-01 07:30:00,
2013-09-01 03:34:00,66.5,66.5,29.75,SW,220,0.0,0.0,100,0.00,OVC,,0.00,WeatherDisplay:10.37,2013-09-01 07:34:00,
2013-09-01 03:39:00,66.3,66.3,29.75,SW,220,0.0,0.0,100,0.00,OVC,,0.00,WeatherDisplay:10.37,2013-09-01 07:39:00,
2013-09-01 03:44:00,66.2,66.2,29.75,SW,220,0.0,0.0,100,0.00,OVC,,0.00,WeatherDisplay:10.37,2013-09-01 07:44:00,
2013-09-01 03:45:00,67.3,67.3,29.75,SW,225,0.0,1.0,100,0.00,CLR,,0.00,WeatherDisplay:10.37,2013-09-01 07:45:00,
2013-09-01 03:49:00,66.2,66.2,29.75,SW,220,0.0,0.0,100,0.00,OVC,,0.00,WeatherDisplay:10.37,2013-09-01 07:49:00,
2013-09-01 03:54:00,66.2,66.2,29.75,SW,220,0.0,0.0,100,0.00,OVC,,0.00,WeatherDisplay:10.37,2013-09-01 07:54:00,
2013-09-01 03:59:00,66.2,66.2,29.76,SW,220,0.0,0.0,100,0.00,OVC,,0.00,WeatherDisplay:10.37,2013-09-01 07:59:00,
2013-09-01 04:00:00,67.0,67.0,29.75,SW,225,0.0,1.0,100,0.00,CLR,,0.00,WeatherDisplay:10.37,2013-09-01 08:00:00,
2013-09-01 04:04:00,66.3,66.3,29.75,SW,220,0.0,0.0,100,0.00,OVC,,0.00,WeatherDisplay:10.37,2013-09-01 08:04:00,
2013-09-01 04:09:00,66.3,66.3,29.76,SW,220,0.0,0.0,100,0.00,OVC,,0.00,WeatherDisplay:10.37,2013-09-01 08:09:00,
2013-09-01 04:14:00,66.3,66.3,29.76,SW,220,0.0,0.0,100,0.00,OVC,,0.00,WeatherDisplay:10.37,2013-09-01 08:14:00,
2013-09-01 04:15:00,66.5,66.5,29.76,SW,225,0.0,1.0,100,0.00,CLR,,0.00,WeatherDisplay:10.37,2013-09-01 08:15:00,
2013-09-01 04:19:00,66.2,66.2,29.76,SW,220,0.0,0.0,100,0.00,OVC,,0.00,WeatherDisplay:10.37,2013-09-01 08:19:00,
2013-09-01 04:24:00,66.2,66.2,29.77,SW,220,0.0,0.0,100,0.00,OVC,,0.00,WeatherDisplay:10.37,2013-09-01 08:24:00,
2013-09-01 04:29:00,66.2,66.2,29.76,SW,220,0.0,0.0,100,0.00,OVC,,0.00,WeatherDisplay:10.37,2013-09-01 08:29:00,
2013-09-01 04:30:00,66.5,66.5,29.75,SW,225,0.0,1.0,100,0.00,CLR,,0.00,WeatherDisplay:10.37,2013-09-01 08:30:00,
2013-09-01 04:34:00,66.2,66.2,29.76,SW,220,0.0,0.0,100,0.00,OVC,,0.00,WeatherDisplay:10.37,2013-09-01 08:34:00,
2013-09-01 04:39:00,66.3,66.3,29.76,SW,220,0.0,0.0,100,0.00,OVC,,0.00,WeatherDisplay:10.37,2013-09-01 08:39:00,
2013-09-01 04:44:00,66.2,66.2,29.76,SW,220,0.0,0.0,100,0.00,OVC,,0.00,WeatherDisplay:10.37,2013-09-01 08:44:00,
2013-09-01 04:45:00,66.2,66.2,29.75,SW,225,0.0,0.0,100,0.00,CLR,,0.00,WeatherDisplay:10.37,2013-09-01 08:45:00,
2013-09-01 04:49:00,66.2,66.2,29.77,SW,220,0.0,0.0,100,0.00,OVC,,0.00,WeatherDisplay:10.37,2013-09-01 08:49:00,
2013-09-01 04:54:00,66.2,66.2,29.77,SW,220,1.2,0.0,100,0.00,OVC,,0.00,WeatherDisplay:10.37,2013-09-01 08:54:00,
2013-09-01 04:59:00,66.2,66.2,29.77,SW,220,0.0,0.0,100,0.00,OVC,,0.00,WeatherDisplay:10.37,2013-09-01 08:59:00,
2013-09-01 05:00:00,66.3,66.3,29.76,SW,225,0.0,1.0,100,0.00,CLR,,0.00,WeatherDisplay:10.37,2013-09-01 09:00:00,
2013-09-01 05:04:00,66.2,66.2,29.77,SW,220,0.0,0.0,100,0.00,,,0.00,WeatherDisplay:10.37,2013-09-01 09:04:00,
2013-09-01 05:09:00,66.2,66.2,29.77,SW,220,0.0,0.0,100,0.00,,,0.00,WeatherDisplay:10.37,2013-09-01 09:09:00,
2013-09-01 05:14:00,66.0,66.0,29.77,SW,220,0.0,0.0,100,0.00,,,0.00,WeatherDisplay:10.37,2013-09-01 09:14:00,
2013-09-01 05:15:00,66.2,66.2,29.76,SW,225,0.0,0.0,100,0.00,CLR,,0.00,WeatherDisplay:10.37,2013-09-01 09:15:00,
2013-09-01 05:19:00,66.0,66.0,29.77,SW,220,0.0,0.0,100,0.00,,,0.00,WeatherDisplay:10.37,2013-09-01 09:19:00,
2013-09-01 05:24:00,66.0,66.0,29.77,SW,220,0.0,0.0,100,0.00,,,0.00,WeatherDisplay:10.37,2013-09-01 09:24:00,
2013-09-01 05:29:00,66.0,66.0,29.77,SW,220,0.0,0.0,100,0.00,,,0.00,WeatherDisplay:10.37,2013-09-01 09:29:00,
2013-09-01 05:30:00,66.2,66.2,29.76,SW,225,0.0,0.0,100,0.00,CLR,,0.00,WeatherDisplay:10.37,2013-09-01 09:30:00,
2013-09-01 05:34:00,66.0,66.0,29.77,SW,220,0.0,0.0,100,0.00,,,0.00,WeatherDisplay:10.37,2013-09-01 09:34:00,
2013-09-01 05:39:00,66.2,66.2,29.77,SW,220,0.0,0.0,100,0.00,,,0.00,WeatherDisplay:10.37,2013-09-01 09:39:00,
2013-09-01 05:44:00,66.3,66.3,29.78,SW,220,0.0,0.0,100,0.00,,,0.00,WeatherDisplay:10.37,2013-09-01 09:44:00,
2013-09-01 05:45:00,66.2,66.2,29.76,SW,225,0.0,0.0,100,0.00,CLR,,0.00,WeatherDisplay:10.37,2013-09-01 09:45:00,
2013-09-01 05:49:00,66.2,66.2,29.78,SW,220,0.0,0.0,100,0.00,,,0.00,WeatherDisplay:10.37,2013-09-01 09:49:00,
2013-09-01 05:54:00,66.2,66.2,29.78,SW,220,0.0,0.0,100,0.00,,,0.00,WeatherDisplay:10.37,2013-09-01 09:54:00,
2013-09-01 05:59:00,66.2,66.2,29.78,SW,220,0.0,0.0,100,0.00,,,0.00,WeatherDisplay:10.37,2013-09-01 09:59:00,
2013-09-01 06:00:00,66.2,66.2,29.77,SW,225,0.0,1.0,100,0.00,CLR,,0.00,WeatherDisplay:10.37,2013-09-01 10:00:00,
2013-09-01 06:04:00,66.2,66.2,29.78,SW,220,0.0,0.0,100,0.00,OVC,,0.00,WeatherDisplay:10.37,2013-09-01 10:04:00,
2013-09-01 06:09:00,66.3,66.3,29.78,SW,220,0.0,0.0,100,0.00,OVC,,0.00,WeatherDisplay:10.37,2013-09-01 10:09:00,
2013-09-01 06:14:00,66.3,66.3,29.78,SW,220,0.0,0.0,100,0.00,OVC,,0.00,WeatherDisplay:10.37,2013-09-01 10:14:00,
2013-09-01 06:15:00,66.0,66.0,29.77,SW,225,0.0,0.0,100,0.00,CLR,,0.00,WeatherDisplay:10.37,2013-09-01 10:15:00,
2013-09-01 06:19:00,66.3,66.3,29.78,SW,220,0.0,0.1,100,0.00,OVC,,0.00,WeatherDisplay:10.37,2013-09-01 10:19:00,
2013-09-01 06:24:00,66.0,66.0,29.79,SW,220,1.2,1.2,100,0.00,OVC,,0.00,WeatherDisplay:10.37,2013-09-01 10:24:00,
2013-09-01 06:29:00,66.0,66.0,29.79,SW,220,0.0,0.0,100,0.00,OVC,,0.00,WeatherDisplay:10.37,2013-09-01 10:29:00,
2013-09-01 06:30:00,66.0,66.0,29.77,SW,225,0.0,0.0,100,0.00,CLR,,0.00,WeatherDisplay:10.37,2013-09-01 10:30:00,
2013-09-01 06:34:00,66.0,66.0,29.80,SW,220,0.0,0.0,100,0.00,OVC,,0.00,WeatherDisplay:10.37,2013-09-01 10:34:00,
2013-09-01 06:40:00,66.0,66.0,29.80,SW,220,0.0,0.0,100,0.00,OVC,,0.00,WeatherDisplay:10.37,2013-09-01 10:40:00,
2013-09-01 06:45:00,65.8,65.8,29.80,SW,220,0.0,0.0,100,0.00,OVC,,0.00,WeatherDisplay:10.37,2013-09-01 10:45:00,
2013-09-01 06:50:00,65.8,65.8,29.80,North,0,3.5,3.5,100,0.00,OVC,,0.00,WeatherDisplay:10.37,2013-09-01 10:50:00,
2013-09-01 06:55:00,65.8,65.8,29.80,North,0,0.0,0.0,100,0.00,OVC,,0.00,WeatherDisplay:10.37,2013-09-01 10:55:00,
2013-09-01 07:00:00,66.0,66.0,29.81,North,0,0.0,0.0,100,0.00,OVC,,0.00,WeatherDisplay:10.37,2013-09-01 11:00:00,
2013-09-01 07:05:00,66.0,66.0,29.81,North,0,0.0,0.0,100,0.00,OVC,,0.00,WeatherDisplay:10.37,2013-09-01 11:05:00,
2013-09-01 07:10:00,66.2,66.2,29.81,North,0,0.0,0.0,100,0.00,OVC,,0.00,WeatherDisplay:10.37,2013-09-01 11:10:00,
2013-09-01 07:15:00,66.2,66.2,29.80,North,0,0.0,0.0,100,0.00,OVC,,0.00,WeatherDisplay:10.37,2013-09-01 11:15:00,
2013-09-01 07:20:00,66.2,66.2,29.80,North,0,0.0,0.0,100,0.00,OVC,,0.00,WeatherDisplay:10.37,2013-09-01 11:20:00,
2013-09-01 07:25:00,66.5,66.5,29.81,North,0,0.0,0.0,100,0.00,OVC,,0.00,WeatherDisplay:10.37,2013-09-01 11:25:00,
2013-09-01 07:30:00,66.7,66.7,29.81,North,0,0.0,0.0,100,0.00,OVC,,0.00,WeatherDisplay:10.37,2013-09-01 11:30:00,
2013-09-01 07:35:00,67.0,67.0,29.81,North,0,0.0,0.0,100,0.00,OVC,,0.00,WeatherDisplay:10.37,2013-09-01 11:35:00,
2013-09-01 07:40:00,67.3,67.3,29.81,North,0,2.6,2.6,100,0.00,OVC,,0.00,WeatherDisplay:10.37,2013-09-01 11:40:00,
2013-09-01 07:45:00,67.3,67.3,29.81,North,0,1.2,0.0,100,0.00,OVC,,0.00,WeatherDisplay:10.37,2013-09-01 11:45:00,
2013-09-01 07:50:00,67.3,67.3,29.82,North,0,0.0,0.8,100,0.00,OVC,,0.00,WeatherDisplay:10.37,2013-09-01 11:50:00,
2013-09-01 07:55:00,67.5,67.5,29.82,North,0,0.0,1.1,100,0.00,OVC,,0.00,WeatherDisplay:10.37,2013-09-01 11:55:00,
2013-09-01 08:00:00,67.7,67.7,29.82,North,0,3.5,0.0,100,0.00,OVC,,0.00,WeatherDisplay:10.37,2013-09-01 12:00:00,
2013-09-01 08:05:00,67.8,67.8,29.82,North,0,1.2,0.0,100,0.00,OVC,,0.00,WeatherDisplay:10.37,2013-09-01 12:05:00,
2013-09-01 08:10:00,68.0,68.0,29.83,North,0,1.2,1.2,100,0.00,OVC,,0.00,WeatherDisplay:10.37,2013-09-01 12:10:00,
2013-09-01 08:15:00,68.3,68.3,29.83,North,0,0.0,0.0,100,0.00,OVC,,0.00,WeatherDisplay:10.37,2013-09-01 12:15:00,
2013-09-01 08:20:00,68.3,68.3,29.83,North,0,1.2,1.2,100,0.00,OVC,,0.00,WeatherDisplay:10.37,2013-09-01 12:20:00,
2013-09-01 08:25:00,68.7,68.7,29.83,WNW,302,0.0,0.0,100,0.00,OVC,,0.00,WeatherDisplay:10.37,2013-09-01 12:25:00,
2013-09-01 08:30:00,69.0,69.0,29.83,WNW,302,0.0,0.0,100,0.00,OVC,,0.00,WeatherDisplay:10.37,2013-09-01 12:30:00,
2013-09-01 08:35:00,69.2,69.2,29.83,WNW,302,0.0,0.0,100,0.00,OVC,,0.00,WeatherDisplay:10.37,2013-09-01 12:35:00,
2013-09-01 08:40:00,69.3,69.3,29.83,WNW,302,0.0,0.0,100,0.00,OVC,,0.00,WeatherDisplay:10.37,2013-09-01 12:40:00,
2013-09-01 08:45:00,69.5,69.5,29.83,WNW,301,0.0,0.0,100,0.00,OVC,,0.00,WeatherDisplay:10.37,2013-09-01 12:45:00,
2013-09-01 08:50:00,69.9,69.9,29.83,WNW,301,0.0,0.0,100,0.00,OVC,,0.00,WeatherDisplay:10.37,2013-09-01 12:50:00,
2013-09-01 08:55:00,69.9,69.9,29.83,WNW,301,0.0,0.1,100,0.00,OVC,,0.00,WeatherDisplay:10.37,2013-09-01 12:55:00,
2013-09-01 09:00:00,70.2,70.2,29.84,WNW,301,0.0,0.0,100,0.00,OVC,,0.00,WeatherDisplay:10.37,2013-09-01 13:00:00,
2013-09-01 09:05:00,70.2,70.2,29.84,WNW,301,0.0,0.0,100,0.00,OVC,,0.00,WeatherDisplay:10.37,2013-09-01 13:05:00,
2013-09-01 09:10:00,70.4,70.4,29.84,WNW,301,0.0,0.0,100,0.00,OVC,,0.00,WeatherDisplay:10.37,2013-09-01 13:10:00,
2013-09-01 09:15:00,70.5,70.5,29.84,WNW,301,0.0,0.0,100,0.00,OVC,,0.00,WeatherDisplay:10.37,2013-09-01 13:15:00,
2013-09-01 09:20:00,70.7,70.7,29.84,WNW,301,0.0,0.0,100,0.00,OVC,,0.00,WeatherDisplay:10.37,2013-09-01 13:20:00,
2013-09-01 09:25:00,70.9,70.9,29.84,WNW,299,0.0,0.0,100,0.00,OVC,,0.00,WeatherDisplay:10.37,2013-09-01 13:25:00,
2013-09-01 09:30:00,71.2,70.6,29.84,WNW,299,0.0,0.0,98,0.00,OVC,,0.00,WeatherDisplay:10.37,2013-09-01 13:30:00,
2013-09-01 09:35:00,71.2,70.6,29.84,WNW,299,0.0,0.0,98,0.00,OVC,,0.00,WeatherDisplay:10.37,2013-09-01 13:35:00,
2013-09-01 09:40:00,71.6,71.0,29.83,WNW,299,0.0,0.1,98,0.00,OVC,,0.00,WeatherDisplay:10.37,2013-09-01 13:40:00,
2013-09-01 09:45:00,71.9,71.3,29.83,WNW,299,0.0,0.0,98,0.00,OVC,,0.00,WeatherDisplay:10.37,2013-09-01 13:45:00,
2013-09-01 09:50:00,72.4,71.5,29.84,WNW,299,0.0,0.0,97,0.00,OVC,,0.00,WeatherDisplay:10.37,2013-09-01 13:50:00,
2013-09-01 09:55:00,72.8,71.3,29.83,North,0,6.9,6.9,95,0.00,OVC,,0.00,WeatherDisplay:10.37,2013-09-01 13:55:00,
2013-09-01 10:00:00,73.0,71.2,29.83,North,7,5.8,5.8,94,0.00,OVC,,0.00,WeatherDisplay:10.37,2013-09-01 14:00:00,
2013-09-01 10:05:00,73.7,72.2,29.83,ENE,75,3.9,3.9,95,0.00,BKN,,0.00,WeatherDisplay:10.37,2013-09-01 14:05:00,
2013-09-01 10:10:00,73.8,71.3,29.83,North,4,0.0,0.0,92,0.00,BKN,,0.00,WeatherDisplay:10.37,2013-09-01 14:10:00,
2013-09-01 10:15:00,73.7,71.2,29.83,North,4,0.0,0.0,92,0.00,BKN,,0.00,WeatherDisplay:10.37,2013-09-01 14:15:00,
2013-09-01 10:20:00,74.4,72.2,29.83,North,4,0.0,0.0,93,0.00,BKN,,0.00,WeatherDisplay:10.37,2013-09-01 14:20:00,
2013-09-01 10:25:00,75.1,72.6,29.84,North,4,0.0,0.0,92,0.00,BKN,,0.00,WeatherDisplay:10.37,2013-09-01 14:25:00,
2013-09-01 10:30:00,75.8,72.7,29.84,ENE,65,1.2,1.2,90,0.00,BKN,,0.00,WeatherDisplay:10.37,2013-09-01 14:30:00,
2013-09-01 10:35:00,76.3,72.5,29.84,ENE,65,1.2,1.2,88,0.00,BKN,,0.00,WeatherDisplay:10.37,2013-09-01 14:35:00,
2013-09-01 10:40:00,76.9,72.4,29.84,ENE,65,1.2,1.2,86,0.00,BKN,,0.00,WeatherDisplay:10.37,2013-09-01 14:40:00,
2013-09-01 10:45:00,77.4,72.5,29.84,ENE,65,0.0,0.0,85,0.00,BKN,,0.00,WeatherDisplay:10.37,2013-09-01 14:45:00,
2013-09-01 10:50:00,78.0,72.8,29.84,ENE,68,2.3,2.3,84,0.00,BKN,,0.00,WeatherDisplay:10.37,2013-09-01 14:50:00,
2013-09-01 10:55:00,78.3,72.3,29.84,ENE,68,2.3,2.3,82,0.00,BKN,,0.00,WeatherDisplay:10.37,2013-09-01 14:55:00,
2013-09-01 11:00:00,78.3,72.3,29.84,ENE,68,2.3,2.3,82,0.00,BKN,,0.00,WeatherDisplay:10.37,2013-09-01 15:00:00,
2013-09-01 11:05:00,78.0,72.4,29.84,ENE,68,2.3,2.3,83,0.00,OVC,,0.00,WeatherDisplay:10.37,2013-09-01 15:05:00,
2013-09-01 11:10:00,78.3,73.1,29.84,East,83,2.3,2.3,84,0.00,OVC,,0.00,WeatherDisplay:10.37,2013-09-01 15:10:00,
2013-09-01 11:15:00,78.7,72.7,29.84,East,79,6.9,6.9,82,0.00,OVC,,0.00,WeatherDisplay:10.37,2013-09-01 15:15:00,
2013-09-01 11:20:00,79.1,72.8,29.84,East,82,1.2,1.2,81,0.00,OVC,,0.00,WeatherDisplay:10.37,2013-09-01 15:20:00,
2013-09-01 11:25:00,79.5,72.8,29.85,East,82,1.2,1.2,80,0.00,OVC,,0.00,WeatherDisplay:10.37,2013-09-01 15:25:00,
2013-09-01 11:30:00,79.8,73.4,29.85,East,82,1.2,1.3,81,0.00,OVC,,0.00,WeatherDisplay:10.37,2013-09-01 15:30:00,
2013-09-01 11:35:00,79.5,72.4,29.85,NE,41,1.2,1.2,79,0.00,OVC,,0.00,WeatherDisplay:10.37,2013-09-01 15:35:00,
2013-09-01 11:40:00,78.7,72.4,29.85,ENE,64,2.6,2.6,81,0.00,OVC,,0.00,WeatherDisplay:10.37,2013-09-01 15:40:00,
2013-09-01 11:45:00,78.7,72.7,29.85,ENE,78,1.2,0.0,82,0.00,OVC,,0.00,WeatherDisplay:10.37,2013-09-01 15:45:00,
2013-09-01 11:50:00,79.1,73.1,29.84,ENE,78,1.2,1.2,82,0.00,OVC,,0.00,WeatherDisplay:10.37,2013-09-01 15:50:00,
2013-09-01 11:55:00,79.6,73.6,29.84,ENE,78,1.2,0.0,82,0.00,OVC,,0.00,WeatherDisplay:10.37,2013-09-01 15:55:00,
2013-09-01 12:00:00,80.0,72.9,29.85,ENE,76,2.3,2.3,79,0.00,OVC,,0.00,WeatherDisplay:10.37,2013-09-01 16:00:00,
2013-09-01 12:05:00,80.4,72.1,29.84,ENE,76,1.2,1.2,76,0.00,OVC,,0.00,WeatherDisplay:10.37,2013-09-01 16:05:00,
2013-09-01 12:10:00,80.4,72.5,29.84,North,357,6.9,6.9,77,0.00,OVC,,0.00,WeatherDisplay:10.37,2013-09-01 16:10:00,
2013-09-01 12:15:00,79.8,71.9,29.84,North,0,1.2,1.3,77,0.00,OVC,,0.00,WeatherDisplay:10.37,2013-09-01 16:15:00,
2013-09-01 12:20:00,79.5,72.0,29.84,North,0,1.2,1.2,78,0.00,OVC,,0.00,WeatherDisplay:10.37,2013-09-01 16:20:00,
2013-09-01 12:26:00,79.6,72.1,29.84,North,0,0.0,0.0,78,0.00,OVC,,0.00,WeatherDisplay:10.37,2013-09-01 16:26:00,
2013-09-01 12:30:00,79.8,73.4,29.85,East,90,0.0,4.0,81,0.00,CLR,,0.00,WeatherDisplay:10.37,2013-09-01 16:30:00,
2013-09-01 12:31:00,80.0,72.1,29.84,North,1,1.2,1.2,77,0.00,OVC,,0.00,WeatherDisplay:10.37,2013-09-01 16:31:00,
2013-09-01 12:36:00,80.0,72.1,29.84,North,0,2.3,2.3,77,0.00,OVC,,0.00,WeatherDisplay:10.37,2013-09-01 16:36:00,
2013-09-01 12:41:00,80.2,71.6,29.84,NE,54,1.2,1.2,75,0.00,OVC,,0.00,WeatherDisplay:10.37,2013-09-01 16:41:00,
2013-09-01 12:45:00,78.7,72.7,29.85,ENE,59,1.0,4.0,82,0.00,CLR,,0.00,WeatherDisplay:10.37,2013-09-01 16:45:00,
2013-09-01 12:46:00,80.4,71.3,29.84,NE,54,1.2,0.0,74,0.00,OVC,,0.00,WeatherDisplay:10.37,2013-09-01 16:46:00,
2013-09-01 12:51:00,80.2,71.9,29.84,NE,54,1.2,0.0,76,0.00,OVC,,0.00,WeatherDisplay:10.37,2013-09-01 16:51:00,
2013-09-01 12:56:00,79.6,71.8,29.84,NE,54,1.2,1.2,77,0.00,OVC,,0.00,WeatherDisplay:10.37,2013-09-01 16:56:00,
2013-09-01 13:00:00,80.0,72.9,29.85,ENE,68,0.0,3.0,79,0.00,CLR,,0.00,WeatherDisplay:10.37,2013-09-01 17:00:00,
2013-09-01 13:01:00,79.1,71.6,29.85,NE,54,2.3,2.3,78,0.00,OVC,,0.00,WeatherDisplay:10.37,2013-09-01 17:01:00,
2013-09-01 13:06:00,78.7,72.0,29.85,NE,54,2.3,2.3,80,0.00,OVC,,0.00,WeatherDisplay:10.37,2013-09-01 17:06:00,
2013-09-01 13:11:00,78.7,71.3,29.85,NE,54,0.0,0.0,78,0.00,OVC,,0.00,WeatherDisplay:10.37,2013-09-01 17:11:00,
2013-09-01 13:15:00,79.8,71.9,29.84,NNE,12,2.0,6.0,77,0.00,CLR,,0.00,WeatherDisplay:10.37,2013-09-01 17:15:00,
2013-09-01 13:16:00,79.1,72.8,29.85,NE,54,2.3,2.3,81,0.00,OVC,,0.00,WeatherDisplay:10.37,2013-09-01 17:16:00,
2013-09-01 13:21:00,79.6,73.6,29.85,NE,54,1.2,1.2,82,0.00,OVC,,0.00,WeatherDisplay:10.37,2013-09-01 17:21:00,
2013-09-01 13:26:00,80.0,74.0,29.85,NE,54,1.2,1.2,82,0.00,OVC,,0.00,WeatherDisplay:10.37,2013-09-01 17:26:00,
2013-09-01 13:30:00,80.0,72.1,29.84,North,0,1.0,3.0,77,0.00,CLR,,0.00,WeatherDisplay:10.37,2013-09-01 17:30:00,
2013-09-01 13:31:00,80.0,74.0,29.85,NE,54,0.0,0.0,82,0.00,OVC,,0.00,WeatherDisplay:10.37,2013-09-01 17:31:00,
2013-09-01 13:36:00,80.0,73.3,29.85,NE,54,0.0,0.0,80,0.00,OVC,,0.00,WeatherDisplay:10.37,2013-09-01 17:36:00,
2013-09-01 13:41:00,79.8,73.1,29.85,NE,54,1.2,1.2,80,0.00,OVC,,0.00,WeatherDisplay:10.37,2013-09-01 17:41:00,
2013-09-01 13:45:00,80.4,71.3,29.84,NE,37,0.0,3.0,74,0.00,CLR,,0.00,WeatherDisplay:10.37,2013-09-01 17:45:00,
2013-09-01 13:46:00,79.6,73.3,29.85,NE,54,0.0,0.0,81,0.00,OVC,,0.00,WeatherDisplay:10.37,2013-09-01 17:46:00,
2013-09-01 13:51:00,79.8,73.1,29.85,NE,54,0.0,0.0,80,0.00,OVC,,0.00,WeatherDisplay:10.37,2013-09-01 17:51:00,
2013-09-01 13:56:00,80.0,73.6,29.85,NE,54,1.2,1.2,81,0.00,OVC,,0.00,WeatherDisplay:10.37,2013-09-01 17:56:00,
2013-09-01 14:00:00,79.1,71.6,29.85,NE,45,0.0,3.0,78,0.00,CLR,,0.00,WeatherDisplay:10.37,2013-09-01 18:00:00,
2013-09-01 14:01:00,79.8,73.4,29.85,NE,54,0.0,0.0,81,0.00,BKN,,0.00,WeatherDisplay:10.37,2013-09-01 18:01:00,
2013-09-01 14:06:00,79.6,73.6,29.85,NE,54,0.0,0.0,82,0.00,BKN,,0.00,WeatherDisplay:10.37,2013-09-01 18:06:00,
2013-09-01 14:11:00,79.3,73.7,29.84,NE,54,0.0,0.0,83,0.00,BKN,,0.00,WeatherDisplay:10.37,2013-09-01 18:11:00,
2013-09-01 14:15:00,79.1,72.8,29.85,NE,45,1.0,3.0,81,0.00,CLR,,0.00,WeatherDisplay:10.37,2013-09-01 18:15:00,
2013-09-01 14:16:00,79.5,72.8,29.85,NE,54,0.0,0.0,80,0.00,BKN,,0.00,WeatherDisplay:10.37,2013-09-01 18:16:00,
2013-09-01 14:21:00,79.1,73.1,29.84,NE,54,1.2,0.0,82,0.00,BKN,,0.00,WeatherDisplay:10.37,2013-09-01 18:21:00,
2013-09-01 14:26:00,78.9,72.9,29.84,NE,54,0.0,0.0,82,0.00,BKN,,0.00,WeatherDisplay:10.37,2013-09-01 18:26:00,
2013-09-01 14:30:00,80.0,74.0,29.85,NE,45,0.0,1.0,82,0.00,CLR,,0.00,WeatherDisplay:10.37,2013-09-01 18:30:00,
2013-09-01 14:31:00,78.9,73.3,29.84,NE,54,1.3,1.3,83,0.00,BKN,,0.00,WeatherDisplay:10.37,2013-09-01 18:31:00,
2013-09-01 14:36:00,79.1,72.8,29.84,NE,54,0.0,0.0,81,0.00,BKN,,0.00,WeatherDisplay:10.37,2013-09-01 18:36:00,
2013-09-01 14:41:00,79.3,73.3,29.84,East,88,2.3,2.3,82,0.00,BKN,,0.00,WeatherDisplay:10.37,2013-09-01 18:41:00,
2013-09-01 14:45:00,79.6,73.3,29.85,NE,45,0.0,1.0,81,0.00,CLR,,0.00,WeatherDisplay:10.37,2013-09-01 18:45:00,
2013-09-01 14:46:00,80.0,74.0,29.84,East,88,1.2,1.2,82,0.00,BKN,,0.00,WeatherDisplay:10.37,2013-09-01 18:46:00,
2013-09-01 14:51:00,80.4,73.3,29.84,East,88,1.2,0.0,79,0.00,BKN,,0.00,WeatherDisplay:10.37,2013-09-01 18:51:00,
2013-09-01 14:56:00,80.4,74.0,29.85,East,88,0.0,0.0,81,0.00,BKN,,0.00,WeatherDisplay:10.37,2013-09-01 18:56:00,
2013-09-01 15:00:00,79.8,73.4,29.85,NE,45,0.0,1.0,81,0.00,CLR,,0.00,WeatherDisplay:10.37,2013-09-01 19:00:00,
2013-09-01 15:01:00,80.4,73.7,29.85,East,88,1.2,0.0,80,0.00,OVC,,0.00,WeatherDisplay:10.37,2013-09-01 19:01:00,
2013-09-01 15:06:00,80.2,73.1,29.85,East,88,1.2,1.2,79,0.00,OVC,,0.00,WeatherDisplay:10.37,2013-09-01 19:06:00,
2013-09-01 15:11:00,80.0,73.6,29.85,East,89,2.3,2.3,81,0.00,OVC,,0.00,WeatherDisplay:10.37,2013-09-01 19:11:00,
2013-09-01 15:15:00,79.5,73.5,29.84,NE,45,0.0,1.0,82,0.00,CLR,,0.00,WeatherDisplay:10.37,2013-09-01 19:15:00,
2013-09-01 15:17:00,80.4,73.3,29.85,East,89,1.2,1.2,79,0.00,OVC,,0.00,WeatherDisplay:10.37,2013-09-01 19:17:00,
2013-09-01 15:22:00,80.8,73.7,29.85,East,100,3.5,3.5,79,0.00,OVC,,0.00,WeatherDisplay:10.37,2013-09-01 19:22:00,
2013-09-01 15:27:00,80.8,73.3,29.85,East,89,3.5,3.5,78,0.00,OVC,,0.00,WeatherDisplay:10.37,2013-09-01 19:27:00,
2013-09-01 15:30:00,78.9,73.3,29.84,NE,45,0.0,3.0,83,0.00,CLR,,0.00,WeatherDisplay:10.37,2013-09-01 19:30:00,
2013-09-01 15:32:00,81.2,73.7,29.85,East,100,2.3,2.3,78,0.00,OVC,,0.00,WeatherDisplay:10.37,2013-09-01 19:32:00,
2013-09-01 15:37:00,81.4,73.5,29.85,East,100,0.0,0.0,77,0.00,OVC,,0.00,WeatherDisplay:10.37,2013-09-01 19:37:00,
2013-09-01 15:42:00,81.4,73.5,29.85,East,100,1.2,1.2,77,0.00,OVC,,0.00,WeatherDisplay:10.37,2013-09-01 19:42:00,
2013-09-01 15:45:00,79.6,73.6,29.84,ENE,63,0.0,3.0,82,0.00,CLR,,0.00,WeatherDisplay:10.37,2013-09-01 19:45:00,
2013-09-01 15:47:00,81.2,74.1,29.85,East,90,6.9,6.9,79,0.00,OVC,,0.00,WeatherDisplay:10.37,2013-09-01 19:47:00,
2013-09-01 15:52:00,81.4,73.1,29.85,ESE,103,1.2,1.2,76,0.00,OVC,,0.00,WeatherDisplay:10.37,2013-09-01 19:52:00,
2013-09-01 15:57:00,80.8,73.3,29.85,ESE,102,0.0,0.0,78,0.00,OVC,,0.00,WeatherDisplay:10.37,2013-09-01 19:57:00,
2013-09-01 16:00:00,80.4,73.7,29.85,East,90,0.0,3.0,80,0.00,CLR,,0.00,WeatherDisplay:10.37,2013-09-01 20:00:00,
2013-09-01 16:02:00,80.6,72.7,29.85,East,95,3.5,3.5,77,0.00,-RA,,0.00,WeatherDisplay:10.37,2013-09-01 20:02:00,
2013-09-01 16:07:00,80.6,72.7,29.85,East,96,3.5,3.5,77,0.00,-RA,,0.00,WeatherDisplay:10.37,2013-09-01 20:07:00,
2013-09-01 16:12:00,80.6,72.7,29.85,East,96,2.3,2.3,77,0.00,-RA,,0.00,WeatherDisplay:10.37,2013-09-01 20:12:00,
2013-09-01 16:15:00,80.4,72.9,29.85,East,90,0.0,4.0,78,0.00,CLR,,0.00,WeatherDisplay:10.37,2013-09-01 20:15:00,
2013-09-01 16:17:00,80.6,72.7,29.85,East,88,2.3,2.3,77,0.00,-RA,,0.00,WeatherDisplay:10.37,2013-09-01 20:17:00,
2013-09-01 16:22:00,80.6,73.1,29.85,East,88,1.2,1.2,78,0.00,-RA,,0.00,WeatherDisplay:10.37,2013-09-01 20:22:00,
2013-09-01 16:27:00,79.8,73.1,29.86,East,88,0.0,0.1,80,0.00,-RA,,0.00,WeatherDisplay:10.37,2013-09-01 20:27:00,
2013-09-01 16:30:00,81.2,74.1,29.85,East,90,0.0,6.0,79,0.00,CLR,,0.00,WeatherDisplay:10.37,2013-09-01 20:30:00,
2013-09-01 16:32:00,79.1,72.8,29.86,East,88,0.0,0.0,81,0.00,-RA,,0.00,WeatherDisplay:10.37,2013-09-01 20:32:00,
2013-09-01 16:37:00,78.7,73.1,29.86,East,88,1.2,1.2,83,0.00,-RA,,0.00,WeatherDisplay:10.37,2013-09-01 20:37:00,
2013-09-01 16:42:00,78.9,72.6,29.85,East,88,1.2,1.2,81,0.00,-RA,,0.00,WeatherDisplay:10.37,2013-09-01 20:42:00,
2013-09-01 16:45:00,81.2,74.1,29.85,East,90,2.0,4.0,79,0.00,CLR,,0.00,WeatherDisplay:10.37,2013-09-01 20:45:00,
2013-09-01 16:47:00,79.1,72.4,29.85,East,88,2.3,2.3,80,0.00,-RA,,0.00,WeatherDisplay:10.37,2013-09-01 20:47:00,
2013-09-01 16:52:00,79.5,72.4,29.85,East,88,1.2,1.2,79,0.00,-RA,,0.00,WeatherDisplay:10.37,2013-09-01 20:52:00,
2013-09-01 16:57:00,80.0,73.3,29.85,East,88,2.3,2.3,80,0.00,-RA,,0.00,WeatherDisplay:10.37,2013-09-01 20:57:00,
2013-09-01 17:00:00,80.8,72.9,29.85,ESE,109,2.0,6.0,77,0.00,CLR,,0.00,WeatherDisplay:10.37,2013-09-01 21:00:00,
2013-09-01 17:02:00,80.6,72.7,29.85,East,88,1.2,1.2,77,0.00,OVC,,0.00,WeatherDisplay:10.37,2013-09-01 21:02:00,
2013-09-01 17:07:00,80.8,72.5,29.85,East,88,1.2,0.0,76,0.00,OVC,,0.00,WeatherDisplay:10.37,2013-09-01 21:07:00,
2013-09-01 17:12:00,81.2,72.1,29.86,East,88,1.2,1.2,74,0.00,OVC,,0.00,WeatherDisplay:10.37,2013-09-01 21:12:00,
2013-09-01 17:15:00,80.4,72.5,29.85,East,90,1.0,4.0,77,0.00,CLR,,0.00,WeatherDisplay:10.37,2013-09-01 21:15:00,
2013-09-01 17:17:00,81.4,72.3,29.85,East,88,2.3,2.3,74,0.00,OVC,,0.00,WeatherDisplay:10.37,2013-09-01 21:17:00,
2013-09-01 17:22:00,81.2,72.5,29.86,East,88,1.2,0.0,75,0.00,OVC,,0.00,WeatherDisplay:10.37,2013-09-01 21:22:00,
2013-09-01 17:27:00,80.2,71.2,29.86,East,93,3.5,3.5,74,0.00,OVC,,0.00,WeatherDisplay:10.37,2013-09-01 21:27:00,
2013-09-01 17:30:00,79.3,73.0,29.86,East,90,0.0,3.0,81,0.00,CLR,,0.00,WeatherDisplay:10.37,2013-09-01 21:30:00,
2013-09-01 17:32:00,79.1,71.3,29.86,East,90,5.8,5.8,77,0.00,OVC,,0.00,WeatherDisplay:10.37,2013-09-01 21:32:00,
2013-09-01 17:37:00,78.2,71.2,29.86,East,89,5.8,5.8,79,0.00,OVC,,0.00,WeatherDisplay:10.37,2013-09-01 21:37:00,
2013-09-01 17:42:00,77.6,70.6,29.86,East,93,2.3,2.3,79,0.00,OVC,,0.00,WeatherDisplay:10.37,2013-09-01 21:42:00,
2013-09-01 17:45:00,79.1,72.4,29.85,East,90,0.0,3.0,80,0.00,CLR,,0.00,WeatherDisplay:10.37,2013-09-01 21:45:00,
2013-09-01 17:47:00,77.0,70.4,29.86,East,83,2.3,2.3,80,0.00,OVC,,0.00,WeatherDisplay:10.37,2013-09-01 21:47:00,
2013-09-01 17:52:00,76.7,70.8,29.86,East,88,6.9,6.9,82,0.00,OVC,,0.00,WeatherDisplay:10.37,2013-09-01 21:52:00,
2013-09-01 17:57:00,76.1,70.2,29.86,East,92,5.8,5.8,82,0.00,OVC,,0.00,WeatherDisplay:10.37,2013-09-01 21:57:00,
2013-09-01 18:00:00,80.2,73.1,29.85,East,90,0.0,3.0,79,0.00,CLR,,0.00,WeatherDisplay:10.37,2013-09-01 22:00:00,
2013-09-01 18:02:00,76.0,70.8,29.86,East,92,6.9,6.9,84,0.00,OVC,,0.00,WeatherDisplay:10.37,2013-09-01 22:02:00,
2013-09-01 18:07:00,75.6,71.1,29.86,East,93,0.0,0.0,86,0.00,OVC,,0.00,WeatherDisplay:10.37,2013-09-01 22:07:00,
2013-09-01 18:12:00,75.4,70.9,29.87,East,95,2.3,2.3,86,0.00,OVC,,0.00,WeatherDisplay:10.37,2013-09-01 22:12:00,
2013-09-01 18:15:00,81.4,72.7,29.85,East,90,0.0,3.0,75,0.00,CLR,,0.00,WeatherDisplay:10.37,2013-09-01 22:15:00,
2013-09-01 18:17:00,75.2,71.1,29.87,East,95,1.2,1.2,87,0.00,OVC,,0.00,WeatherDisplay:10.37,2013-09-01 22:17:00,
2013-09-01 18:22:00,75.1,71.0,29.87,East,95,1.2,1.2,87,0.00,OVC,,0.00,WeatherDisplay:10.37,2013-09-01 22:22:00,
2013-09-01 18:27:00,74.9,70.8,29.88,East,95,0.0,0.0,87,0.00,OVC,,0.00,WeatherDisplay:10.37,2013-09-01 22:27:00,
2013-09-01 18:30:00,79.3,71.1,29.86,East,90,3.0,6.0,76,0.00,CLR,,0.00,WeatherDisplay:10.37,2013-09-01 22:30:00,
2013-09-01 18:32:00,74.9,71.1,29.88,East,95,0.0,0.0,88,0.00,OVC,,0.00,WeatherDisplay:10.37,2013-09-01 22:32:00,
2013-09-01 18:37:00,74.7,70.9,29.88,East,95,0.0,0.0,88,0.00,OVC,,0.00,WeatherDisplay:10.37,2013-09-01 22:37:00,
2013-09-01 18:42:00,74.5,70.7,29.88,East,95,0.0,0.0,88,0.00,OVC,,0.00,WeatherDisplay:10.37,2013-09-01 22:42:00,
2013-09-01 18:45:00,77.2,70.5,29.86,East,90,1.0,8.0,80,0.00,CLR,,0.00,WeatherDisplay:10.37,2013-09-01 22:45:00,
2013-09-01 18:47:00,74.4,70.9,29.88,East,95,0.0,0.0,89,0.00,OVC,,0.00,WeatherDisplay:10.37,2013-09-01 22:47:00,
2013-09-01 18:52:00,74.2,71.1,29.88,East,95,0.0,0.0,90,0.00,OVC,,0.00,WeatherDisplay:10.37,2013-09-01 22:52:00,
2013-09-01 18:57:00,74.0,70.9,29.88,East,95,1.2,1.2,90,0.00,OVC,,0.00,WeatherDisplay:10.37,2013-09-01 22:57:00,
2013-09-01 19:00:00,76.0,70.5,29.86,East,90,3.0,8.0,83,0.00,CLR,,0.00,WeatherDisplay:10.37,2013-09-01 23:00:00,
2013-09-01 19:02:00,74.0,70.9,29.88,East,95,1.2,0.0,90,0.00,OVC,,0.00,WeatherDisplay:10.37,2013-09-01 23:02:00,
2013-09-01 19:07:00,73.8,70.7,29.88,East,95,1.2,1.2,90,0.00,OVC,,0.00,WeatherDisplay:10.37,2013-09-01 23:07:00,
2013-09-01 19:12:00,73.8,71.0,29.89,East,95,1.2,1.2,91,0.00,OVC,,0.00,WeatherDisplay:10.37,2013-09-01 23:12:00,
2013-09-01 19:15:00,75.2,71.1,29.87,East,90,0.0,4.0,87,0.00,CLR,,0.00,WeatherDisplay:10.37,2013-09-01 23:15:00,
2013-09-01 19:17:00,73.7,70.9,29.89,East,95,0.0,0.0,91,0.00,OVC,,0.00,WeatherDisplay:10.37,2013-09-01 23:17:00,
2013-09-01 19:23:00,73.3,70.5,29.89,East,95,0.0,0.0,91,0.00,OVC,,0.00,WeatherDisplay:10.37,2013-09-01 23:23:00,
2013-09-01 19:28:00,72.8,70.3,29.89,East,95,0.0,0.0,92,0.00,OVC,,0.00,WeatherDisplay:10.37,2013-09-01 23:28:00,
2013-09-01 19:30:00,74.9,70.8,29.88,East,90,0.0,3.0,87,0.00,CLR,,0.00,WeatherDisplay:10.37,2013-09-01 23:30:00,
2013-09-01 19:33:00,72.6,70.1,29.89,East,95,0.0,0.0,92,0.00,OVC,,0.00,WeatherDisplay:10.37,2013-09-01 23:33:00,
2013-09-01 19:38:00,71.9,69.4,29.89,East,95,0.0,0.0,92,0.00,OVC,,0.00,WeatherDisplay:10.37,2013-09-01 23:38:00,
2013-09-01 19:43:00,71.7,69.6,29.88,East,95,1.3,1.3,93,0.00,OVC,,0.00,WeatherDisplay:10.37,2013-09-01 23:43:00,
2013-09-01 19:45:00,74.4,70.9,29.88,East,90,0.0,1.0,89,0.00,CLR,,0.00,WeatherDisplay:10.37,2013-09-01 23:45:00,
2013-09-01 19:48:00,71.6,69.5,29.88,East,95,0.0,0.0,93,0.00,OVC,,0.00,WeatherDisplay:10.37,2013-09-01 23:48:00,
2013-09-01 19:53:00,71.4,69.3,29.89,East,95,0.0,0.0,93,0.00,OVC,,0.00,WeatherDisplay:10.37,2013-09-01 23:53:00,
2013-09-01 19:58:00,71.1,69.3,29.89,East,95,0.0,0.0,94,0.00,OVC,,0.00,WeatherDisplay:10.37,2013-09-01 23:58:00,
2013-09-01 20:00:00,74.0,70.9,29.88,East,90,0.0,1.0,90,0.00,CLR,,0.00,WeatherDisplay:10.37,2013-09-02 00:00:00,
2013-09-01 20:03:00,70.9,69.1,29.89,East,95,0.0,0.0,94,0.00,SCT,,0.00,WeatherDisplay:10.37,2013-09-02 00:03:00,
2013-09-01 20:08:00,70.7,68.9,29.90,East,95,0.0,0.0,94,0.00,SCT,,0.00,WeatherDisplay:10.37,2013-09-02 00:08:00,
2013-09-01 20:13:00,70.5,68.7,29.90,East,95,0.0,0.0,94,0.00,SCT,,0.00,WeatherDisplay:10.37,2013-09-02 00:13:00,
2013-09-01 20:15:00,73.7,70.9,29.89,East,90,0.0,3.0,91,0.00,CLR,,0.00,WeatherDisplay:10.37,2013-09-02 00:15:00,
2013-09-01 20:18:00,70.4,68.9,29.90,East,95,0.0,0.0,95,0.00,SCT,,0.00,WeatherDisplay:10.37,2013-09-02 00:18:00,
2013-09-01 20:23:00,70.0,68.5,29.90,East,95,0.0,0.0,95,0.00,SCT,,0.00,WeatherDisplay:10.37,2013-09-02 00:23:00,
2013-09-01 20:28:00,69.9,68.7,29.90,East,95,0.0,0.0,96,0.00,SCT,,0.00,WeatherDisplay:10.37,2013-09-02 00:28:00,
2013-09-01 20:30:00,72.6,70.1,29.89,East,90,0.0,1.0,92,0.00,CLR,,0.00,WeatherDisplay:10.37,2013-09-02 00:30:00,
2013-09-01 20:33:00,69.5,68.6,29.90,East,95,0.0,0.0,97,0.00,SCT,,0.00,WeatherDisplay:10.37,2013-09-02 00:33:00,
2013-09-01 20:38:00,69.2,68.6,29.90,East,95,0.0,0.0,98,0.00,SCT,,0.00,WeatherDisplay:10.37,2013-09-02 00:38:00,
2013-09-01 20:43:00,69.0,68.4,29.90,East,95,0.0,0.0,98,0.00,SCT,,0.00,WeatherDisplay:10.37,2013-09-02 00:43:00,
2013-09-01 20:45:00,71.7,69.6,29.88,East,90,0.0,3.0,93,0.00,CLR,,0.00,WeatherDisplay:10.37,2013-09-02 00:45:00,
2013-09-01 20:48:00,68.8,68.5,29.90,East,95,1.2,0.0,99,0.00,SCT,,0.00,WeatherDisplay:10.37,2013-09-02 00:48:00,
2013-09-01 20:53:00,68.8,68.5,29.89,East,95,1.2,1.2,99,0.00,SCT,,0.00,WeatherDisplay:10.37,2013-09-02 00:53:00,
2013-09-01 20:58:00,69.2,69.2,29.89,East,95,0.0,0.0,100,0.00,SCT,,0.00,WeatherDisplay:10.37,2013-09-02 00:58:00,
2013-09-01 21:00:00,71.1,69.3,29.89,East,90,0.0,0.0,94,0.00,CLR,,0.00,WeatherDisplay:10.37,2013-09-02 01:00:00,
2013-09-01 21:03:00,69.3,69.0,29.89,East,95,0.0,0.0,99,0.00,OVC,,0.00,WeatherDisplay:10.37,2013-09-02 01:03:00,
2013-09-01 21:08:00,69.2,68.6,29.89,East,95,0.0,0.0,98,0.00,OVC,,0.00,WeatherDisplay:10.37,2013-09-02 01:08:00,
2013-09-01 21:13:00,69.0,68.4,29.89,East,95,0.0,0.0,98,0.00,OVC,,0.00,WeatherDisplay:10.37,2013-09-02 01:13:00,
2013-09-01 21:15:00,70.4,68.9,29.90,East,90,0.0,0.0,95,0.00,CLR,,0.00,WeatherDisplay:10.37,2013-09-02 01:15:00,
2013-09-01 21:18:00,68.8,68.2,29.89,East,95,0.0,0.0,98,0.00,OVC,,0.00,WeatherDisplay:10.37,2013-09-02 01:18:00,
2013-09-01 21:23:00,68.5,68.2,29.89,East,93,1.2,1.2,99,0.00,OVC,,0.00,WeatherDisplay:10.37,2013-09-02 01:23:00,
2013-09-01 21:28:00,68.2,67.9,29.89,East,93,0.0,0.0,99,0.00,OVC,,0.00,WeatherDisplay:10.37,2013-09-02 01:28:00,
2013-09-01 21:30:00,69.7,68.5,29.90,East,90,0.0,0.0,96,0.00,CLR,,0.00,WeatherDisplay:10.37,2013-09-02 01:30:00,
2013-09-01 21:33:00,68.0,68.0,29.88,East,93,0.0,0.0,100,0.00,OVC,,0.00,WeatherDisplay:10.37,2013-09-02 01:33:00,
2013-09-01 21:38:00,67.8,67.8,29.88,East,93,0.0,0.0,100,0.00,OVC,,0.00,WeatherDisplay:10.37,2013-09-02 01:38:00,
2013-09-01 21:43:00,67.8,67.8,29.88,East,93,0.0,0.0,100,0.00,OVC,,0.00,WeatherDisplay:10.37,2013-09-02 01:43:00,
2013-09-01 21:45:00,69.0,68.4,29.90,East,90,0.0,0.0,98,0.00,CLR,,0.00,WeatherDisplay:10.37,2013-09-02 01:45:00,
2013-09-01 21:48:00,67.5,67.5,29.88,East,93,1.2,1.2,100,0.00,OVC,,0.00,WeatherDisplay:10.37,2013-09-02 01:48:00,
2013-09-01 21:53:00,67.5,67.5,29.89,East,93,0.0,0.0,100,0.00,OVC,,0.00,WeatherDisplay:10.37,2013-09-02 01:53:00,
2013-09-01 21:58:00,67.2,67.2,29.89,NNE,20,3.5,3.5,100,0.00,OVC,,0.00,WeatherDisplay:10.37,2013-09-02 01:58:00,
2013-09-01 22:00:00,69.3,69.0,29.89,East,90,0.0,1.0,99,0.00,CLR,,0.00,WeatherDisplay:10.37,2013-09-02 02:00:00,
2013-09-01 22:03:00,67.2,67.2,29.89,NNE,20,0.0,0.0,100,0.00,SCT,,0.00,WeatherDisplay:10.37,2013-09-02 02:03:00,
2013-09-01 22:08:00,67.0,67.0,29.89,NNE,20,0.0,0.0,100,0.00,SCT,,0.00,WeatherDisplay:10.37,2013-09-02 02:08:00,
2013-09-01 22:13:00,67.0,67.0,29.90,NNE,20,0.0,0.0,100,0.00,SCT,,0.00,WeatherDisplay:10.37,2013-09-02 02:13:00,
2013-09-01 22:15:00,68.8,68.2,29.89,East,90,0.0,0.0,98,0.00,CLR,,0.00,WeatherDisplay:10.37,2013-09-02 02:15:00,
2013-09-01 22:18:00,66.8,66.8,29.90,NNE,20,0.0,0.0,100,0.00,SCT,,0.00,WeatherDisplay:10.37,2013-09-02 02:18:00,
2013-09-01 22:23:00,67.0,67.0,29.90,NNE,20,0.0,0.0,100,0.00,SCT,,0.00,WeatherDisplay:10.37,2013-09-02 02:23:00,
2013-09-01 22:28:00,67.0,67.0,29.90,NNE,20,0.0,0.0,100,0.00,SCT,,0.00,WeatherDisplay:10.37,2013-09-02 02:28:00,
2013-09-01 22:30:00,68.0,68.0,29.88,East,90,0.0,3.0,100,0.00,CLR,,0.00,WeatherDisplay:10.37,2013-09-02 02:30:00,
2013-09-01 22:33:00,66.8,66.8,29.90,NNE,20,0.0,0.0,100,0.00,SCT,,0.00,WeatherDisplay:10.37,2013-09-02 02:33:00,
2013-09-01 22:38:00,66.8,66.8,29.90,NNE,20,0.0,0.0,100,0.00,SCT,,0.00,WeatherDisplay:10.37,2013-09-02 02:38:00,
2013-09-01 22:43:00,66.8,66.8,29.90,NNE,20,0.0,0.0,100,0.00,SCT,,0.00,WeatherDisplay:10.37,2013-09-02 02:43:00,
2013-09-01 22:45:00,67.7,67.7,29.88,East,90,0.0,1.0,100,0.00,CLR,,0.00,WeatherDisplay:10.37,2013-09-02 02:45:00,
2013-09-01 22:48:00,66.8,66.8,29.89,NNE,20,1.2,0.0,100,0.00,SCT,,0.00,WeatherDisplay:10.37,2013-09-02 02:48:00,
2013-09-01 22:53:00,66.8,66.8,29.90,NNE,20,0.0,0.0,100,0.00,SCT,,0.00,WeatherDisplay:10.37,2013-09-02 02:53:00,
2013-09-01 22:58:00,66.7,66.7,29.90,NNE,20,1.2,1.2,100,0.00,SCT,,0.00,WeatherDisplay:10.37,2013-09-02 02:58:00,
2013-09-01 23:00:00,67.2,67.2,29.89,ENE,65,1.0,4.0,100,0.00,CLR,,0.00,WeatherDisplay:10.37,2013-09-02 03:00:00,
2013-09-01 23:03:00,66.8,66.8,29.90,NNE,20,0.0,0.0,100,0.00,OVC,,0.00,WeatherDisplay:10.37,2013-09-02 03:03:00,
2013-09-01 23:08:00,66.8,66.8,29.90,NNE,20,3.5,3.5,100,0.00,OVC,,0.00,WeatherDisplay:10.37,2013-09-02 03:08:00,
2013-09-01 23:13:00,66.7,66.7,29.90,NNE,20,0.0,0.0,100,0.00,OVC,,0.00,WeatherDisplay:10.37,2013-09-02 03:13:00,
2013-09-01 23:15:00,66.8,66.8,29.90,NNE,22,0.0,1.0,100,0.00,CLR,,0.00,WeatherDisplay:10.37,2013-09-02 03:15:00,
2013-09-01 23:18:00,66.7,66.7,29.90,ENE,76,1.2,2.1,100,0.00,OVC,,0.00,WeatherDisplay:10.37,2013-09-02 03:18:00,
2013-09-01 23:23:00,66.8,66.8,29.90,ENE,62,3.9,3.9,100,0.00,OVC,,0.00,WeatherDisplay:10.37,2013-09-02 03:23:00,
2013-09-01 23:28:00,66.8,66.8,29.89,ENE,72,3.5,3.5,100,0.00,OVC,,0.00,WeatherDisplay:10.37,2013-09-02 03:28:00,
2013-09-01 23:30:00,66.8,66.8,29.89,NNE,22,0.0,1.0,100,0.00,CLR,,0.00,WeatherDisplay:10.37,2013-09-02 03:30:00,
2013-09-01 23:33:00,66.8,66.8,29.89,ENE,73,1.3,1.3,100,0.00,OVC,,0.00,WeatherDisplay:10.37,2013-09-02 03:33:00,
2013-09-01 23:38:00,66.7,66.7,29.89,ENE,59,3.5,0.0,100,0.00,OVC,,0.00,WeatherDisplay:10.37,2013-09-02 03:38:00,
2013-09-01 23:43:00,66.7,66.7,29.89,ENE,59,0.0,0.0,100,0.00,OVC,,0.00,WeatherDisplay:10.37,2013-09-02 03:43:00,
2013-09-01 23:45:00,66.8,66.8,29.89,NNE,22,0.0,1.0,100,0.00,CLR,,0.00,WeatherDisplay:10.37,2013-09-02 03:45:00,
2013-09-01 23:48:00,66.7,66.7,29.89,ENE,59,0.0,0.0,100,0.00,OVC,,0.00,WeatherDisplay:10.37,2013-09-02 03:48:00,
2013-09-01 23:53:00,66.7,66.7,29.90,East,80,2.3,2.3,100,0.00,OVC,,0.00,WeatherDisplay:10.37,2013-09-02 03:53:00,
2013-09-01 23:58:00,66.7,66.7,29.90,ENE,76,3.5,3.5,100,0.00,OVC,,0.00,WeatherDisplay:10.37,2013-09-02 03:58:00,